Regional Weather Roundup
Issued by NWS

Home | Current Version | Previous Version | Graphics & Text | Print | Product List | Glossary On
Versions: 1 2 3 4 5 6 7 8 9 10 11 12 13 14 15 16 17 18 19 20 21 22 23 24 25 26 27 28 29 30 31 32 33 34 35 36 37 38 39 40 41 42 43 44 45 46 47 48 49 50
000
ASUS43 KDMX 030407
RWRIA

WEATHER ROUNDUP FOR IOWA
NATIONAL WEATHER SERVICE DES MOINES IA
1100 PM CDT WED SEP 02 2015

NOTE: "FAIR" INDICATES FEW OR NO CLOUDS BELOW 12,000 FEET WITH NO
SIGNIFICANT WEATHER AND/OR OBSTRUCTIONS TO VISIBILITY.

* - THESE STATIONS ARE NOT NWS STATIONS...THUS NOT UNDER NWS
QUALITY CONTROL.  THEY ALSO DO NOT REPORT WEATHER SUCH
AS PRECIPITATION OR FOG.

IAZ001>003-012>014-020>022-031>034-043>046-030500-
   NORTHWEST IOWA

CITY           SKY/WX    TMP DP  RH WIND       PRES   REMARKS
CARROLL *      CLEAR     70  70 100 S5        29.90S
CHEROKEE *     CLEAR     73  72  94 CALM      29.88S
DENISON *      CLEAR     75  72  88 S12       29.87S
LE MARS *      CLEAR     73  72  94 CALM      29.86S
ORANGE CITY *  CLEAR     73  72  94 SE3       29.88R
SHELDON *      CLEAR     72  70  94 SE6       29.87S
SIOUX CITY     CLEAR     73  68  84 SE8       29.84S
SPENCER        CLEAR     74  70  87 S8        29.89S FOG
STORM LAKE *   CLEAR     72  72 100 SE7       29.91S
$$

IAZ055>058-069>071-079>083-090>094-030500-
   SOUTHWEST IOWA

CITY           SKY/WX    TMP DP  RH WIND       PRES   REMARKS
ATLANTIC *     CLEAR     75  72  88 S6        29.90F
AUDUBON *      CLEAR     73  70  88 S5        29.92S
CLARINDA *     CLEAR     77  72  83 S6        29.93S
COUNCIL BLFS * CLEAR     77  70  78 S12       29.89S
CRESTON *      CLEAR     73  70  88 S9        29.95S
LAMONI         PTCLDY    77  69  76 S9        29.95S
RED OAK *      CLEAR     77  72  83 S7        29.90S
SHENANDOAH *   CLEAR     77  72  83 SE8       29.90S
$$

IAZ047>049-059>061-072>074-084-030500-
   CENTRAL IOWA

CITY           SKY/WX    TMP DP  RH WIND       PRES   REMARKS
AMES           CLEAR     71  69  93 S5        29.92S
ANKENY *       CLEAR     75  72  88 S5        29.92R
CHARITON *     CLEAR     73  70  88 S7        29.95R
DES MOINES     PTCLDY    76  70  82 S8        29.92R
GRINNELL*      CLEAR     72  68  88 S7        29.95S
KNOXVILLE *    PTCLDY    75  70  83 S8G14     29.93R
MARSHALLTOWN   CLEAR     75  69  81 S8        29.92S
PELLA *        CLEAR     73  72  94 S5        29.94S
PERRY *          N/A     73  72  94 S5        29.91R
$$

IAZ004>006-015-016-023>025-035-036-030500-
   NORTH CENTRAL IOWA

CITY           SKY/WX    TMP DP  RH WIND       PRES   REMARKS
ALGONA *       CLEAR     73  70  88 S8        29.90S
CLARION *      CLEAR     72  68  88 S7        29.91S
ESTHERVILLE    CLEAR     69  68  96 S6        29.89S
FORT DODGE *   CLEAR     75  66  73 S7        29.91S
MASON CITY     CLEAR     69  68  96 S6        29.92S
FOREST CITY *  CLEAR     68  68 100 CALM      29.91S
IOWA FALLS *     N/A     72  70  94 S6        29.93S
$$

IAZ007>011-017>019-026>030-037>042-050>054-066-030500-
   NORTHEAST IOWA

CITY           SKY/WX    TMP DP  RH WIND       PRES   REMARKS
CEDAR RAPIDS   CLEAR     72  71  97 S6        29.94S
CHARLES CITY * CLEAR     72  72 100 S5        29.93S
CLINTON *      CLEAR     73  70  88 S5        29.98S
DECORAH *      PTCLDY    73  70  88 S7        29.93R
DUBUQUE        CLEAR     72  69  90 SW8       29.96R
MONTICELLO *   CLEAR     72  70  94 S8        29.94S
OELWEIN *        N/A     72  70  94 S7        29.94S
WATERLOO       CLEAR     73  69  87 S9        29.92R
$$

IAZ064-065-067-068-078-030500-
   EAST CENTRAL IOWA

CITY           SKY/WX    TMP DP  RH WIND       PRES   REMARKS
DAVENPORT      PTCLDY    75  68  78 S6        29.96S
IOWA CITY      CLEAR     74  70  87 CALM      29.96R
MT. PLEASANT * CLEAR     75  66  73 S6        29.96R
MUSCATINE *    CLEAR     75  68  78 S5        29.95S
QUAD CITIES    PTCLDY    76  67  73 CALM      29.96R
$$

IAZ062-063-075>077-085>089-095>099-030500-
   SOUTHEAST IOWA

CITY           SKY/WX    TMP DP  RH WIND       PRES   REMARKS
BURLINGTON     PTCLDY    74  69  85 S6        29.96S
FAIRFIELD *    CLEAR     75  68  78 S7G13     29.95S
FORT MADISON * CLEAR     73  70  88 S5        29.97S
KEOKUK *       MOCLDY    79  68  69 S6        29.96S HX  81
OSKALOOSA *      N/A     73  68  83 S6        29.95R
CENTERVILLE *  CLEAR     73  70  88 S7        29.97S
OTTUMWA        PTCLDY    74  70  87 S9        29.93S
WASHINGTON *     N/A    N/A N/A N/A MISG        N/A
$$

ABBREVIATIONS USED IN REMARKS
   TC - TEMPERATURES IN CELSIUS
  WCI - WIND CHILL INDEX
   HX - HEAT INDEX
  VSB - VISIBILITY
$$



USA.gov is the U.S. government's official web portal to all federal, state and local government web resources and services.